Location: Eschertshofen
(49.3064°N, 11.5756°E)
Time: 21:54:56
(UTC+00:00)

Cosmos 372 Rocket - Pass Details

Date: 18 September 2020
Orbit: 739 x 767 km, 74.1° (Epoch: 30 October)

Event Time Altitude Azimuth Distance (km) Brightness Sun altitude
Rises 18:43:48 0° 193° (SSW) 3,223 7.2 -14.3°
Reaches altitude 10° 18:46:11 10° 190° (S) 2,300 6.4 -14.6°
Maximum altitude 18:51:21 67° 109° (ESE) 832 3.9 -15.4°
Drops below altitude 10° 18:56:33 10° 28° (NNE) 2,305 6.4 -16.2°
Sets 18:58:56 0° 26° (NNE) 3,231 7.2 -16.6°
